Regional Weather Roundup
Issued by NWS Wilmington, NC

Home | Current Version | Previous Version | Text Only | Print | Product List | Glossary On
Versions: 1 2 3 4 5 6 7 8 9 10 11 12 13 14 15 16 17 18 19 20 21 22 23 24 25 26 27 28 29 30 31 32 33 34 35 36 37 38 39 40 41 42 43 44 45 46 47 48 49 50
000
ASUS42 KILM 231110
RWRILM
RWRILM
REGIONAL HOURLY WEATHER ROUNDUP
NATIONAL WEATHER SERVICE WILMINGTON NC
700 AM EDT TUE SEP 23 2014

NOTE: "FAIR" INDICATES FEW OR NO CLOUDS BELOW 12,000 FEET WITH NO
SIGNIFICANT WEATHER AND/OR OBSTRUCTIONS TO VISIBILITY.

...............WFO WILMINGTON COUNTY WARNING AREA...............

......COASTAL NC AND SC COUNTIES......

CITY           SKY/WX    TMP DP  RH WIND       PRES   REMARKS
WILMINGTON     CLOUDY    65  62  90 NE8       30.14R
SOUTHPORT      DRIZZLE   66  63  89 N5        30.13R
N MYRTLE BEACH LGT RAIN  67  63  87 NE12      30.12R
MYRTLE BEACH   CLOUDY    66  63  88 NE9       30.11R

......INLAND NC AND SC COUNTIES.......

CITY           SKY/WX    TMP DP  RH WIND       PRES   REMARKS
LUMBERTON      CLOUDY    64  60  87 NE8       30.15R
ELIZABETHTOWN  CLOUDY    65  59  80 E5        30.15R
WHITEVILLE     CLOUDY    65  60  83 NE7       30.13R
FLORENCE       CLOUDY    64  60  87 NE9       30.14R
DARLINGTON     CLOUDY    63  57  82 N8        30.17R

....................REST OF NORTH CAROLINA......................

.........EASTERN NC.........

CITY           SKY/WX    TMP DP  RH WIND       PRES   REMARKS
CAPE HATTERAS  CLOUDY    68  58  70 NE12G18   30.16S
JACKSONVILLE   CLOUDY    64  57  77 N8        30.18R
MOREHEAD CITY  CLOUDY    70  60  70 NE9       30.16R
KENANSVILLE    CLOUDY    63  57  82 N5        30.18S
NEW BERN       CLOUDY    66  60  81 NE8       30.19R
ELIZABETH CITY CLOUDY    61  53  75 N12       30.22R

.........CENTRAL NC.........

CITY           SKY/WX    TMP DP  RH WIND       PRES   REMARKS
RALEIGH DURHAM CLOUDY    58  47  66 NE9G16    30.25R
ROCKY MOUNT    CLOUDY    59  47  64 NE14      30.23R
ROANOKE RAPIDS NOT AVBL
FAYETTEVILLE   CLOUDY    63  59  87 NE12      30.18R
HOFFMAN        NOT AVBL

.........WESTERN NC.........

CITY           SKY/WX    TMP DP  RH WIND       PRES   REMARKS
CHARLOTTE      CLOUDY    60  49  66 NE9       30.23R
GREENSBORO     CLOUDY    57  46  66 NE12      30.26R
HICKORY        NOT AVBL
BOONE          NOT AVBL
ASHEVILLE      NOT AVBL

.....................REST OF SOUTH CAROLINA.....................

.........EASTERN SC.........

CITY           SKY/WX    TMP DP  RH WIND       PRES   REMARKS
CHARLESTON     LGT RAIN  66  63  90 NW8       30.10R
BEAUFORT MCAS  CLOUDY    67  64  90 N9        30.09F
HILTON HEAD    NOT AVBL

.........CENTRAL SC.........

CITY           SKY/WX    TMP DP  RH WIND       PRES   REMARKS
COLUMBIA       CLOUDY    65  59  81 NE5       30.18R
ORANGEBURG     LGT RAIN  64  60  87 N7        30.17R
SUMTER SHAW    LGT RAIN  63  60  90 NE6       30.15R

.........WESTERN SC.........

CITY           SKY/WX    TMP DP  RH WIND       PRES   REMARKS
GREENVILLE     NOT AVBL
ROCK HILL      CLOUDY    59  51  75 NE7       30.22R
ANDERSON       PTCLDY    57  52  83 NE7       30.19R
CLEMSON        NOT AVBL
GREENWOOD      PTCLDY    59  53  80 NE3       30.20R


...................COASTAL AND OFFSHORE REPORTS..................

................LOCAL PIERS AND NC RESERVE................


STATION/POSITION TIME  SKY/WX   TEMP    WIND        PRES    VSBY
                                AIR SEA DIR/SP/G
                 (UTC)          (F)     (DEG/KT/KT) (MB)    (MI)
JOHNY MRCER PIER 1100            73 79   50/ 25/ 28 1019.4F
NC RESRV MASNBRO 1000            69      20/  6     1019.0S
OCEAN CREST PIER 1100            67 79  350/  7/ 10 1018.9R
SPRINGMAID  PIER 1100            71 78   50/ 19/ 23 1019.6R


................COASTAL AND OFFSHORE BUOYS................


STATION/POSITION TIME  SKY/WX   TEMP    WIND        PRES    VSBY
                                AIR SEA DIR/SP/G
                 (UTC)          (F)     (DEG/KT/KT) (MB)    (MI)
DIMNDSHOAL 41025 1100            73      20/ 21/ 27 1020.1F
WVE H/P(F/S)=  5/ 7 WND WVE H/P(F/S)=  5/ 7

CAPE LOOKOUT     1000            73      40/ 22/ 28 1020.0R
ONSLOW BAY 41036 1100            75 82   50/ 25/ 31 1018.6R
WVE H/P(F/S)=  5/ 5 WND WVE H/P(F/S)=  5/ 5

5 WRITEBCH 41038 1000            71 79   60/ 19/ 23   N/A
MASONBORO  41110 1100               79                N/A
WVE H/P(F/S)=  5/ 5 WND WVE H/P(F/S)=  5/ 5

WILM HARBR 41108 1100               79                N/A
WVE H/P(F/S)=  4/ 5 WND WVE H/P(F/S)=  5/ 5

27WRITEBCH 41037 1000            72 80   60/ 21/ 25 1018.3S
FRYING PAN 41013 NOT AVBL
SUNST NRSH 41024 1000            69      40/ 14/ 16 1018.9R
CAPRS NRSH 41029 1000            71      50/ 14/ 17   N/A
EDISTO     41004 1100            74 81   50/ 12/ 14 1017.8R
WVE H/P(F/S)=  4/ 5 WND WVE H/P(F/S)=  3/ 5 SWL H/P/D(F/S/D)=  2/ 7



..........OFFSHORE BUOYS BEYOND 100 NM OFFSHORE...........
.....IN A TRIANGLE---HAT TO BERMUDA TO BAHAMAS TO HAT.....


STATION/POSITION TIME  SKY/WX   TEMP    WIND        PRES    VSBY
                                AIR SEA DIR/SP/G
                 (UTC)          (F)     (DEG/KT/KT) (MB)    (MI)
150E HAT   41001 NOT AVBL
W BERMUDA  41048 1036            80 81  160/  6/  8 1019.2R
WVE H/P(F/S)=  4/ 7 WND WVE H/P(F/S)=  2/ 4 SWL H/P/D(F/S/D)=  3/220/ 7

ATLANTIC S 41049 1041            83 85   70/ 12/ 16 1019.0R
WVE H/P(F/S)=  5/ 7 WND WVE H/P(F/S)=  3/ 5 SWL H/P/D(F/S/D)=  5/100/ 7

E BAHAMAS  41046 1041            82 84  120/ 16/ 23 1015.3R
WVE H/P(F/S)=  6/ 8 WND WVE H/P(F/S)=  5/ 7 SWL H/P/D(F/S/D)=  3/110/ 8

NE BAHAMAS 41047 1031            82 83  120/ 12/ 16 1016.9R
WVE H/P(F/S)=  3/ 7 WND WVE H/P(F/S)=  2/ 3 SWL H/P/D(F/S/D)=  2/100/ 7

120E CANVRL41010 1100            79 84  120/  4/  6 1016.7R
WVE H/P(F/S)=  2/ 8 SWL H/P/D(F/S/D)=  2/ 40/ 8


END


USA.gov is the U.S. government's official web portal to all federal, state and local government web resources and services.